SCOUT X-4 DEB, 805

Orbit data source: Space-Track

SCOUT X-4 DEB, 805 is space debris in LEO originally from a launch on Thu, 04 Jun 1964 UTC launched from the Air Force Western Test Range (AFWTR). Debris objects in space refer to the collection of defunct objects orbiting the Earth. Examples of debris include non-operational satellites, rocket bodies, and fragments generated from explosions, collisions, or faulty payload assembly.

Loading next visibility...
Identifier
805, 1964-026B
Orbit
LEO
Country
Flag of USUS
Related business
Manufacturer
Unknown
Mission
Spacecraft
Bus & Motor
Unknown
Mass
Unknown
Launch date (UTC)
1964-06-04 (61 years ago)
Launch vehicle
Unknown
Launch site
Air Force Western Test Range (AFWTR)
Object type
Payload
Rocket body
Debris
Shape & HBR
Unknown
Radar Cross Section
Small (<0.1 m²)

Expand to show TLE details & history
Last TLE update: 1 day ago

TLE from 1 day ago
0 SCOUT X-4 DEB
1 00805U 64026B   25260.70200828  .00001519  00000-0  52821-3 0  9990
2 00805  89.8674 333.3608 0029687  21.0640 339.1774 14.34865133150949
Epoch: 2025-09-17T16:50Z
TLE epoch observation values (Epoch: 2025-09-17T16:50:53.515Z)
Latitude
0.00001°
Longitude
83.76365°
Altitude
758.745 km
Speed
7.485 km/s
True Right ascension
22h 13m 26s
True Declination
0° 00' 00"
Sunlit
Object was in full shadow at epoch
Visualization orbit readout
Latitude
Unknown
Longitude
Unknown
Altitude
Unknown
Speed
Unknown
Apparent Right ascension
Unknown
Apparent Declination
Unknown
Sunlit
N/A
Visualization observer readout
Local Sidereal Time
14:25:32
Azimuth
Unknown
Elevation
Unknown
Doppler factor
Unknown
Orbital elements
Apogee altitude
793.67 km
Perigee altitude
751.214 km
Semi-major axis
7,150.579 km
Eccentricity
0.00297
Inclination
89.8674°
RAAN
333.3608°
Arg. of periapsis
21.064°
True anomaly
339.05605°
Mean anomaly
339.1774°
Eccentric anomaly
339.11677°
Mean motion
3.58948 °/min
Orbital period
100.29 mins
BSTAR
0.00052821
Loading maneuver chart data...
Computing Atmospheric mass density...
Loading historical data...
Loading historical data...
Loading historical data...
Loading historical data...
Loading historical data...
Loading historical data...
Loading historical data...

Documentation

Showing up to 5 results
|